Location: Slanting_Bridge
(35.6330°N, 80.9830°W)
Time: 07:32:58
(UTC-05:00)

Amateur Radio Satellites - All Passes

Search period start: 06 March 2015 07:02
Search period end: 07 March 2015 07:02
Location: Slanting_Bridge, 35.6330°N, 80.9830°W

Satellite Date Start Highest point End Downlink Frequencies (MHz)
Time Altitude Azimuth
RS-15 06 Mar 07:08:09 07:18:50 44° 48° (NE) 07:30:07 29.354- 29.394
STRAND 1 06 Mar 07:21:50 07:26:26 32° 263° (W) 07:31:01 437.568
CUBESAT XI-V 06 Mar 07:22:58 07:26:08 17° 268° (W) 07:29:09 437.345
Cubesat XI-IV 06 Mar 07:36:39 07:41:25 33° 290° (WNW) 07:46:05 437.490
CUTE-I 06 Mar 07:44:39 07:49:11 28° 291° (WNW) 07:53:37 437.470
CANX-2 06 Mar 08:01:16 08:02:33 11° 90° (E) 08:04:05 2200.000
ISS 06 Mar 08:06:03 08:09:04 35° 324° (NW) 08:12:04 145.825
GOMX 1 06 Mar 08:15:20 08:17:56 16° 91° (E) 08:20:39 467.674
AIST 1 06 Mar 08:16:28 08:18:32 13° 290° (WNW) 08:20:22
CUTE 1.7 + AOD 2 06 Mar 08:18:02 08:20:45 17° 92° (E) 08:23:37 437.475
BRITE-PL 06 Mar 08:29:26 08:33:32 39° 97° (E) 08:37:27 437.365/2234.400
DOVE 4 06 Mar 08:31:34 08:34:11 17° 92° (E) 08:36:56 437.250
O/OREOS (USA 219) 06 Mar 08:38:21 08:42:52 75° 109° (ESE) 08:47:28 437.305
AAUSAT CUBESAT 2 06 Mar 08:46:46 08:49:58 21° 94° (E) 08:53:15 437.432
GONETS M04 06 Mar 08:50:19 08:59:03 67° 80° (E) 09:07:48
COMPASS 1 06 Mar 08:52:09 08:55:48 29° 96° (E) 08:59:31 437.405
HO-68 06 Mar 09:02:30 09:09:37 62° 102° (ESE) 09:16:44 435.675
SO-50 06 Mar 09:07:23 09:11:21 24° 49° (NE) 09:15:23 436.795
Oscar 11 06 Mar 09:08:20 09:11:13 18° 93° (E) 09:14:15 145.826/435.025
RS-15 06 Mar 09:20:29 09:31:38 55° 248° (WSW) 09:43:06 29.354- 29.394
SEEDS 06 Mar 09:24:58 09:29:14 87° 283° (WNW) 09:33:29 437.485
QB50P2 06 Mar 09:28:53 09:30:20 12° 67° (ENE) 09:32:01 145.880/145.840
DELFI C3 06 Mar 09:30:49 09:34:10 24° 95° (E) 09:37:34 145.870
CANX-2 06 Mar 09:34:42 09:38:50 49° 285° (WNW) 09:42:58 2200.000
DUCHIFAT 1 06 Mar 09:39:22 09:41:46 15° 69° (ENE) 09:44:21 145.980
DX 1 06 Mar 09:39:32 09:42:24 18° 93° (E) 09:45:24 434.975-435.025
CUBEBUG 2 06 Mar 09:41:00 09:44:39 30° 96° (E) 09:48:23 437.445
CINEMA 3 06 Mar 09:46:33 09:50:42 70° 100° (E) 09:54:51 145.822/145.860
UNISAT 6 06 Mar 09:49:14 09:53:16 38° 73° (ENE) 09:57:18 437.425
GOMX 1 06 Mar 09:52:28 09:56:17 31° 288° (WNW) 09:59:56 467.674
CUTE 1.7 + AOD 2 06 Mar 09:52:56 09:56:48 33° 287° (WNW) 10:00:38 437.475
FUNcube-1 06 Mar 10:00:29 10:04:14 33° 97° (E) 10:08:05 145.935
POPSAT HIP 1 06 Mar 10:01:28 10:05:05 28° 72° (ENE) 10:08:45 437.405
AISAT 06 Mar 10:02:03 10:03:46 12° 90° (E) 10:05:44 437.250
POLYITAN 1 06 Mar 10:02:55 10:06:37 29° 72° (ENE) 10:10:22 437.675
ZACube-1 06 Mar 10:03:09 10:07:00 36° 98° (E) 10:10:55 437.345
UKube-1 06 Mar 10:03:12 10:07:03 31° 97° (E) 10:10:56 .
DOVE 4 06 Mar 10:08:25 10:12:08 31° 288° (WNW) 10:15:45 437.250
VELOX 1 06 Mar 10:09:03 10:11:27 15° 92° (E) 10:14:03 145.980
BRITE-PL 06 Mar 10:09:15 10:11:45 15° 293° (WNW) 10:14:00 437.365/2234.400
TIGRISAT 06 Mar 10:12:00 10:16:22 70° 76° (ENE) 10:20:39 435.000
AAUSAT CUBESAT 2 06 Mar 10:22:04 10:25:36 26° 288° (WNW) 10:29:04 437.432
O/OREOS (USA 219) 06 Mar 10:22:06 10:22:57 10° 307° (NW) 10:23:33 437.305
NANOSAT C BR1 06 Mar 10:22:27 10:26:35 49° 74° (ENE) 10:30:43 145.865
50 SAT 06 Mar 10:25:57 10:29:01 22° 95° (E) 10:32:10 437.505
DANDE 06 Mar 10:26:53 10:28:29 15° 76° (ENE) 10:30:14 436.750
ANTELSAT 06 Mar 10:27:50 10:32:13 73° 258° (WSW) 10:36:32 437.575/2403.000
COMPASS 1 06 Mar 10:28:15 10:31:22 20° 290° (WNW) 10:34:21 437.405
UWE-3 06 Mar 10:31:09 10:35:19 78° 284° (WNW) 10:39:31 435.000/436.395/437.385
CUSAT 1 06 Mar 10:32:16 10:34:37 29° 79° (E) 10:37:15 437.405
ESTCUBE 1 06 Mar 10:39:28 10:42:11 16° 92° (E) 10:45:05 437.505/2401.250
Oscar 11 06 Mar 10:43:36 10:47:32 33° 287° (WNW) 10:51:23 145.826/435.025
BUGSAT 1 06 Mar 10:45:28 10:49:42 69° 77° (ENE) 10:53:59 437.445
SO-50 06 Mar 10:47:26 10:52:03 39° 246° (WSW) 10:56:35 436.795
GONETS M04 06 Mar 10:48:43 10:55:14 23° 276° (W) 11:01:22
HO-68 06 Mar 10:51:21 10:56:53 24° 297° (WNW) 11:02:10 435.675
QB50P1 06 Mar 10:56:16 11:00:31 63° 259° (W) 11:04:46 145.935-145.965
QB50P2 06 Mar 11:01:39 11:05:50 53° 260° (W) 11:10:03 145.880/145.840
DELFI C3 06 Mar 11:06:05 11:09:16 22° 289° (WNW) 11:12:22 145.870
HUMSAT D 06 Mar 11:10:29 11:14:34 64° 285° (WNW) 11:18:41 437.325/437.525
DUCHIFAT 1 06 Mar 11:13:18 11:17:20 39° 262° (W) 11:21:21 145.980
DX 1 06 Mar 11:14:50 11:18:47 34° 288° (WNW) 11:22:41 434.975-435.025
CUBEBUG 2 06 Mar 11:18:18 11:21:13 18° 290° (WNW) 11:24:00 437.445
CUBEBUG 1 06 Mar 11:25:51 11:30:07 49° 99° (E) 11:34:20 437.445
UNISAT 6 06 Mar 11:27:33 11:30:16 15° 268° (W) 11:32:46 437.425
TISAT 1 06 Mar 11:33:59 11:35:01 11° 90° (E) 11:36:19 437.305
AISAT 06 Mar 11:36:26 11:40:44 49° 286° (WNW) 11:44:59 437.250
FUNcube-1 06 Mar 11:37:40 11:40:24 17° 290° (WNW) 11:42:59 145.935
POPSAT HIP 1 06 Mar 11:37:40 11:40:59 21° 266° (W) 11:44:11 437.405
POLYITAN 1 06 Mar 11:39:23 11:42:36 20° 266° (W) 11:45:41 437.675
UKube-1 06 Mar 11:39:52 11:43:02 19° 291° (WNW) 11:46:03 .
ZACube-1 06 Mar 11:40:37 11:43:09 15° 291° (WNW) 11:45:31 437.345
SPROUT 06 Mar 11:43:05 11:45:52 17° 93° (E) 11:48:47 437.525
VELOX 1 06 Mar 11:44:05 11:48:17 41° 287° (WNW) 11:52:25 145.980
50 SAT 06 Mar 12:00:49 12:03:57 22° 289° (WNW) 12:07:00 437.505
NANOSAT C BR1 06 Mar 12:01:09 12:02:47 12° 270° (W) 12:04:09 145.865
ESTCUBE 1 06 Mar 12:15:01 12:19:17 40° 287° (WNW) 12:23:31 437.505/2401.250
ISS 06 Mar 13:01:11 13:01:58 11° 23° (NNE) 13:02:50 145.825
SWISSCUBE 06 Mar 13:02:52 13:06:20 20° 93° (E) 13:09:56 437.505
CUBEBUG 1 06 Mar 13:03:55 13:06:06 13° 293° (WNW) 13:08:04 437.445
TISAT 1 06 Mar 13:07:07 13:11:12 49° 285° (WNW) 13:15:14 437.305
Oscar 19 06 Mar 13:08:08 13:13:16 85° 79° (E) 13:18:26 437.125/150
BEESAT 06 Mar 13:10:32 13:14:13 22° 94° (E) 13:18:01 436.000
Gurwin Techsat 1B 06 Mar 13:13:18 13:17:18 23° 68° (ENE) 13:21:27 435.225
ITAMSAT 1 06 Mar 13:16:17 13:20:51 32° 70° (ENE) 13:25:30 435.822/435.867
SPROUT 06 Mar 13:18:13 13:22:05 33° 288° (WNW) 13:25:53 437.525
AO-7 06 Mar 13:25:28 13:26:47 11° 51° (NE) 13:28:43 29.400- 29.500
ITUPSAT 1 06 Mar 13:39:53 13:44:30 46° 99° (E) 13:49:07 437.325
VERMONT LUNAR 06 Mar 14:33:15 14:35:39 18° 145° (SE) 14:38:09 437.305
ISS 06 Mar 14:35:45 14:38:58 65° 40° (NE) 14:42:11 145.825
SWISSCUBE 06 Mar 14:39:56 14:44:20 36° 288° (WNW) 14:48:40 437.505
BEESAT 06 Mar 14:47:50 14:52:08 32° 289° (WNW) 14:56:21 436.000
HORYU 2 06 Mar 14:51:06 14:55:23 51° 74° (ENE) 14:59:42 437.375
Gurwin Techsat 1B 06 Mar 14:52:06 14:57:04 40° 262° (W) 15:02:02 435.225
ITAMSAT 1 06 Mar 14:55:59 15:00:23 26° 265° (W) 15:04:42 435.822/435.867
PHONESAT 2.4 06 Mar 15:07:33 15:09:49 16° 144° (SE) 15:12:11 2401.200-2431.200
AO-7 06 Mar 15:10:00 15:18:05 58° 68° (ENE) 15:26:12 29.400- 29.500
ITUPSAT 1 06 Mar 15:18:56 15:22:04 17° 293° (WNW) 15:25:01 437.325
STARS 06 Mar 15:24:09 15:28:32 77° 102° (ESE) 15:32:54 437.465
KKS-1 06 Mar 15:27:39 15:32:02 60° 285° (WNW) 15:36:22 437.445
BEESAT 3 06 Mar 15:29:43 15:32:56 23° 112° (ESE) 15:36:17 437.485
YUBILEINY 06 Mar 15:37:57 15:46:22 57° 91° (E) 15:54:56 435.215
JAS-2 06 Mar 15:58:33 16:04:02 71° 75° (ENE) 16:10:15 435.910
BEESAT 2 06 Mar 15:59:19 16:03:12 44° 115° (ESE) 16:07:11 435.950
VERMONT LUNAR 06 Mar 16:09:47 16:13:16 86° 331° (NNW) 16:16:46 437.305
AIST 2 06 Mar 16:21:02 16:24:35 27° 113° (ESE) 16:28:15 435.215
AUBIESAT-1 06 Mar 16:30:00 16:33:50 28° 101° (E) 16:37:54 437.475
HORYU 2 06 Mar 16:30:39 16:32:25 12° 270° (W) 16:33:55 437.375
M-CUBED/EXP-1 PRIME 06 Mar 16:31:34 16:35:35 32° 102° (ESE) 16:39:51 437.505
PHONESAT 2.4 06 Mar 16:44:18 16:47:56 83° 159° (SSE) 16:51:35 2401.200-2431.200
AO-7 06 Mar 17:04:21 17:11:19 28° 265° (W) 17:18:03 29.400- 29.500
BEESAT 3 06 Mar 17:07:25 17:10:56 26° 307° (NW) 17:14:27 437.485
MOZHAYETS 4 06 Mar 17:09:29 17:14:08 80° 102° (ESE) 17:18:47
Cubesat XI-IV 06 Mar 17:15:53 17:20:40 35° 70° (ENE) 17:25:32 437.490
CUTE-I 06 Mar 17:23:22 17:28:19 40° 71° (ENE) 17:33:20 437.470
YUBILEINY 06 Mar 17:36:26 17:43:46 28° 291° (WNW) 17:50:51 435.215
BEESAT 2 06 Mar 17:38:58 17:41:39 16° 312° (NW) 17:44:13 435.950
CUBESAT XI-V 06 Mar 17:45:47 17:47:42 13° 89° (E) 17:49:53 437.345
JAS-2 06 Mar 17:47:34 17:50:09 13° 275° (W) 17:52:24 435.910
VERMONT LUNAR 06 Mar 17:48:08 17:51:24 36° 355° (N) 17:54:40 437.305
AIST 2 06 Mar 17:59:36 18:03:11 25° 308° (NW) 18:06:44 435.215
STRAND 1 06 Mar 17:59:44 18:00:00 10° 88° (E) 18:00:40 437.568
AUBIESAT-1 06 Mar 18:04:49 18:08:35 27° 293° (WNW) 18:12:26 437.475
M-CUBED/EXP-1 PRIME 06 Mar 18:06:49 18:10:21 23° 293° (WNW) 18:13:57 437.505
PRISM 06 Mar 18:15:01 18:18:29 25° 96° (E) 18:22:01 437.425
PHONESAT 2.4 06 Mar 18:23:09 18:26:35 39° 353° (N) 18:30:03 2401.200-2431.200
AIST 1 06 Mar 18:23:57 18:28:20 66° 265° (W) 18:32:38
PCSat 06 Mar 18:49:36 18:53:39 23° 108° (ESE) 18:57:54 145.827
O/OREOS (USA 219) 06 Mar 18:51:19 18:55:55 86° 66° (ENE) 19:00:29 437.305
Cubesat XI-IV 06 Mar 18:56:21 19:00:50 26° 265° (W) 19:05:13 437.490
CUTE-I 06 Mar 19:04:23 19:08:34 22° 267° (W) 19:12:37 437.470
GOMX 1 06 Mar 19:20:12 19:23:39 18° 69° (ENE) 19:27:10 467.674
CUBESAT XI-V 06 Mar 19:20:57 19:25:34 54° 285° (WNW) 19:30:06 437.345
VERMONT LUNAR 06 Mar 19:26:18 19:29:41 44° 12° (NNE) 19:33:02 437.305
HO-68 06 Mar 19:28:19 19:34:30 34° 66° (ENE) 19:40:51 435.675
DOVE 4 06 Mar 19:34:27 19:37:29 17° 69° (ENE) 19:40:38 437.250
STRAND 1 06 Mar 19:34:43 19:39:53 76° 284° (WNW) 19:44:59 437.568
BRITE-PL 06 Mar 19:36:07 19:41:18 41° 73° (ENE) 19:46:18 437.365/2234.400
AAUSAT CUBESAT 2 06 Mar 19:37:38 19:38:20 10° 67° (ENE) 19:39:18 437.432
COMPASS 1 06 Mar 19:42:14 19:44:25 14° 69° (ENE) 19:46:47 437.405
PRISM 06 Mar 19:50:31 19:53:54 23° 290° (WNW) 19:57:10 437.425
GONETS M04 06 Mar 19:57:02 20:00:09 13° 80° (E) 20:04:01
PHONESAT 2.4 06 Mar 20:01:57 20:05:27 43° 10° (N) 20:08:56 2401.200-2431.200
Oscar 11 06 Mar 20:03:13 20:03:29 10° 66° (ENE) 20:04:02 145.826/435.025
SEEDS 06 Mar 20:14:22 20:18:18 42° 74° (ENE) 20:22:17 437.485
DELFI C3 06 Mar 20:18:24 20:19:24 11° 68° (ENE) 20:20:39 145.870
CANX-2 06 Mar 20:24:32 20:28:44 79° 77° (ENE) 20:32:57 2200.000
PCSat 06 Mar 20:31:43 20:36:50 42° 302° (WNW) 20:41:59 145.827
DX 1 06 Mar 20:34:06 20:35:31 12° 66° (ENE) 20:37:09 434.975-435.025
CUBEBUG 2 06 Mar 20:37:12 20:40:21 20° 71° (ENE) 20:43:35 437.445
CUTE 1.7 + AOD 2 06 Mar 20:42:29 20:46:40 69° 259° (W) 20:50:52 437.475
CINEMA 3 06 Mar 20:45:10 20:49:41 47° 75° (ENE) 20:54:03 145.822/145.860
FUNcube-1 06 Mar 20:54:20 20:57:24 20° 71° (ENE) 21:00:33 145.935
UKube-1 06 Mar 20:56:04 20:59:09 20° 69° (ENE) 21:02:21 .
GOMX 1 06 Mar 20:56:19 21:01:30 49° 261° (W) 21:06:25 467.674
ZACube-1 06 Mar 20:57:04 21:00:19 22° 71° (ENE) 21:03:38 437.345
VERMONT LUNAR 06 Mar 21:04:13 21:07:37 51° 208° (SSW) 21:11:00 437.305
VELOX 1 06 Mar 21:06:23 21:06:49 10° 65° (ENE) 21:07:32 145.980
AAUSAT CUBESAT 2 06 Mar 21:09:31 21:13:34 55° 260° (W) 21:17:39 437.432
DOVE 4 06 Mar 21:10:00 21:14:59 49° 261° (W) 21:19:41 437.250
BRITE-PL 06 Mar 21:15:25 21:19:54 24° 266° (W) 21:24:06 437.365/2234.400
HO-68 06 Mar 21:15:27 21:22:07 41° 262° (W) 21:28:46 435.675
COMPASS 1 06 Mar 21:15:56 21:19:51 39° 262° (W) 21:23:44 437.405
UWE-3 06 Mar 21:25:19 21:29:39 58° 76° (ENE) 21:33:54 435.000/436.395/437.385
RS-15 06 Mar 21:29:43 21:38:44 33° 107° (ESE) 21:48:06 29.354- 29.394
Oscar 11 06 Mar 21:34:58 21:39:13 62° 260° (W) 21:43:29 145.826/435.025
ESTCUBE 1 06 Mar 21:38:13 21:39:27 11° 66° (ENE) 21:40:57 437.505/2401.250
PHONESAT 2.4 06 Mar 21:40:25 21:44:00 60° 206° (SSW) 21:47:34 2401.200-2431.200
GONETS M04 06 Mar 21:47:12 21:55:53 84° 95° (E) 22:04:37
DELFI C3 06 Mar 21:50:18 21:54:13 49° 261° (W) 21:58:09 145.870
SEEDS 06 Mar 21:52:27 21:54:24 13° 269° (W) 21:56:07 437.485
HUMSAT D 06 Mar 21:59:26 22:03:33 58° 76° (ENE) 22:07:38 437.325/437.525
DX 1 06 Mar 22:07:01 22:11:20 57° 260° (W) 22:15:40 434.975-435.025
TIGRISAT 06 Mar 22:07:39 22:10:28 17° 93° (E) 22:13:29 435.000
CUBEBUG 2 06 Mar 22:12:54 22:16:55 31° 263° (W) 22:20:47 437.445
CUBEBUG 1 06 Mar 22:19:26 22:23:15 29° 71° (ENE) 22:27:07 437.445
ANTELSAT 06 Mar 22:23:07 22:26:49 27° 96° (E) 22:30:37 437.575/2403.000
CINEMA 3 06 Mar 22:24:28 22:27:09 14° 268° (W) 22:29:32 145.822/145.860
FUNcube-1 06 Mar 22:29:46 22:33:36 30° 264° (W) 22:37:20 145.935
AISAT 06 Mar 22:31:05 22:35:35 81° 257° (WSW) 22:40:06 437.250
UKube-1 06 Mar 22:31:13 22:35:08 31° 263° (W) 22:39:00 .
ZACube-1 06 Mar 22:32:51 22:36:36 27° 264° (W) 22:40:13 437.345
BUGSAT 1 06 Mar 22:33:09 22:34:37 12° 90° (E) 22:36:21 437.445
SPROUT 06 Mar 22:37:17 22:37:33 10° 66° (ENE) 22:38:06 437.525
VELOX 1 06 Mar 22:38:26 22:42:54 68° 259° (W) 22:47:23 145.980
50 SAT 06 Mar 22:43:42 22:47:36 55° 260° (W) 22:51:29 437.505
QB50P1 06 Mar 22:45:05 22:48:33 25° 95° (E) 22:52:04 145.935-145.965
QB50P2 06 Mar 22:50:24 22:54:06 30° 96° (E) 22:57:50 145.880/145.840
DUCHIFAT 1 06 Mar 23:01:11 23:05:06 38° 98° (E) 23:09:02 145.980
ESTCUBE 1 06 Mar 23:11:22 23:15:51 63° 259° (W) 23:20:22 437.505/2401.250
UNISAT 6 06 Mar 23:20:19 23:24:36 61° 285° (WNW) 23:28:57 437.425
PHONESAT 2.4 06 Mar 23:20:59 23:22:00 11° 218° (SW) 23:22:53 2401.200-2431.200
SO-50 06 Mar 23:21:27 23:23:14 12° 108° (ESE) 23:25:18 436.795
POPSAT HIP 1 06 Mar 23:24:48 23:29:02 79° 102° (ESE) 23:33:13 437.405
POLYITAN 1 06 Mar 23:26:39 23:30:53 85° 99° (E) 23:35:06 437.675
DANDE 06 Mar 23:33:18 23:39:51 61° 98° (E) 23:44:46 436.750
CUSAT 1 06 Mar 23:36:17 23:42:25 80° 99° (E) 23:46:58 437.405
RS-15 06 Mar 23:39:44 23:50:32 62° 306° (NW) 00:01:25 29.354- 29.394
TIGRISAT 06 Mar 23:43:27 23:47:21 33° 287° (WNW) 23:51:16 435.000
NANOSAT C BR1 06 Mar 23:46:12 23:50:20 56° 285° (WNW) 23:54:26 145.865
GONETS M04 06 Mar 23:48:19 23:54:00 18° 296° (WNW) 23:59:11
JUGNU 06 Mar 23:50:28 23:52:25 12° 168° (SSE) 23:54:29 437.505
TISAT 1 06 Mar 23:56:07 00:00:24 81° 77° (ENE) 00:04:41 437.305
CUBEBUG 1 06 Mar 23:56:10 23:59:38 22° 266° (W) 00:03:01 437.445
ANTELSAT 07 Mar 00:00:07 00:03:31 22° 289° (WNW) 00:06:50 437.575/2403.000
BUGSAT 1 07 Mar 00:06:30 00:10:26 43° 286° (WNW) 00:14:16 437.445
SWISSCUBE 07 Mar 00:07:21 00:10:24 18° 67° (ENE) 00:13:38 437.505
SPROUT 07 Mar 00:08:53 00:13:11 64° 259° (W) 00:17:31 437.525
BEESAT 07 Mar 00:14:50 00:18:07 19° 68° (ENE) 00:21:34 436.000
QB50P1 07 Mar 00:21:01 00:24:21 22° 290° (WNW) 00:27:34 145.935-145.965
BEESAT 2 07 Mar 00:22:59 00:25:01 13° 46° (NE) 00:27:11 435.950
QB50P2 07 Mar 00:26:47 00:29:51 19° 290° (WNW) 00:32:47 145.880/145.840
DUCHIFAT 1 07 Mar 00:38:10 00:40:40 15° 292° (WNW) 00:43:00 145.980
ITUPSAT 1 07 Mar 00:43:58 00:48:20 38° 72° (ENE) 00:52:49 437.325
SO-50 07 Mar 00:58:47 01:03:17 59° 303° (WNW) 01:07:59 436.795
DANDE 07 Mar 01:19:45 01:23:10 15° 286° (WNW) 01:25:53 436.750
Oscar 19 07 Mar 01:22:58 01:27:41 37° 97° (E) 01:32:27 437.125/150
BEESAT 3 07 Mar 01:28:35 01:32:43 75° 60° (ENE) 01:36:46 437.485
ITAMSAT 1 07 Mar 01:33:29 01:36:03 14° 90° (E) 01:38:54 435.822/435.867
Gurwin Techsat 1B 07 Mar 01:35:01 01:35:30 10° 88° (E) 01:36:27 435.225
JUGNU 07 Mar 01:37:06 01:40:42 17° 177° (S) 01:44:18 437.505
SWISSCUBE 07 Mar 01:43:25 01:47:58 43° 261° (W) 01:52:32 437.505
SRMSAT 07 Mar 01:48:32 01:51:19 14° 170° (S) 01:54:12 437.500
BEESAT 07 Mar 01:51:16 01:55:44 39° 262° (W) 02:00:11 436.000
YUBILEINY 07 Mar 01:52:42 01:59:18 24° 68° (ENE) 02:06:15 435.215
RS-15 07 Mar 01:58:35 02:05:58 19° 334° (NNW) 02:13:06 29.354- 29.394
BEESAT 2 07 Mar 01:59:32 02:03:36 56° 244° (WSW) 02:07:34 435.950
STARS 07 Mar 02:18:15 02:22:28 46° 74° (ENE) 02:26:43 437.465
KKS-1 07 Mar 02:22:38 02:27:07 84° 77° (ENE) 02:31:36 437.445
ITUPSAT 1 07 Mar 02:22:58 02:26:25 19° 267° (W) 02:29:44 437.325
AIST 2 07 Mar 02:23:20 02:27:36 90° 250° (WSW) 02:31:47 435.215
HORYU 2 07 Mar 02:47:20 02:49:09 13° 91° (E) 02:51:13 437.375
Oscar 19 07 Mar 03:02:52 03:06:51 23° 292° (WNW) 03:10:42 437.125/150
Gurwin Techsat 1B 07 Mar 03:10:52 03:16:13 79° 284° (WNW) 03:21:31 435.225
ITAMSAT 1 07 Mar 03:10:53 03:16:01 58° 286° (WNW) 03:21:06 435.822/435.867
JAS-2 07 Mar 03:12:19 03:15:59 15° 86° (E) 03:20:16 435.910
AO-7 07 Mar 03:16:17 03:22:01 21° 92° (E) 03:28:09 29.400- 29.500
AUBIESAT-1 07 Mar 03:17:35 03:19:44 16° 64° (ENE) 03:22:01 437.475
M-CUBED/EXP-1 PRIME 07 Mar 03:19:26 03:21:53 20° 66° (ENE) 03:24:30 437.505
JUGNU 07 Mar 03:25:46 03:28:59 15° 187° (S) 03:32:10 437.505
SRMSAT 07 Mar 03:36:00 03:39:46 17° 180° (S) 03:43:34 437.500
PCSat 07 Mar 03:41:23 03:43:13 12° 44° (NE) 03:45:20 145.827
YUBILEINY 07 Mar 03:48:11 03:56:56 66° 267° (W) 04:05:36 435.215
STARS 07 Mar 03:56:58 03:59:15 13° 269° (W) 04:01:16 437.465
MOZHAYETS 4 07 Mar 04:08:31 04:12:55 52° 74° (ENE) 04:17:23
RS-15 07 Mar 04:19:59 04:24:49 13° 10° (N) 04:29:59 29.354- 29.394
HORYU 2 07 Mar 04:21:50 04:26:09 49° 287° (WNW) 04:30:28 437.375
AUBIESAT-1 07 Mar 04:51:51 04:54:31 21° 260° (W) 04:57:12 437.475
JAS-2 07 Mar 04:54:15 05:01:59 86° 102° (ESE) 05:09:53 435.910
M-CUBED/EXP-1 PRIME 07 Mar 04:54:30 04:56:51 17° 262° (W) 04:59:10 437.505
PRISM 07 Mar 05:04:10 05:06:06 13° 67° (ENE) 05:08:14 437.425
AO-7 07 Mar 05:07:20 05:15:36 72° 290° (WNW) 05:23:48 29.400- 29.500
STRAND 1 07 Mar 05:12:02 05:14:01 13° 64° (ENE) 05:16:17 437.568
PCSat 07 Mar 05:22:09 05:27:36 82° 62° (ENE) 05:33:01 145.827
SRMSAT 07 Mar 05:25:14 05:28:14 14° 190° (S) 05:31:10 437.500
Cubesat XI-IV 07 Mar 05:37:07 05:40:28 17° 92° (E) 05:44:02 437.490
CUTE-I 07 Mar 05:44:15 05:48:03 20° 93° (E) 05:52:00 437.470
MOZHAYETS 4 07 Mar 05:48:30 05:50:33 12° 270° (W) 05:52:20
CUBESAT XI-V 07 Mar 06:21:02 06:25:43 79° 258° (WSW) 06:30:28 437.345
RS-15 07 Mar 06:32:16 06:42:17 35° 43° (NE) 06:52:55 29.354- 29.394
PRISM 07 Mar 06:37:18 06:41:16 43° 261° (W) 06:45:16 437.425
JAS-2 07 Mar 06:41:10 06:46:16 19° 297° (WNW) 06:51:07 435.910
STRAND 1 07 Mar 06:47:33 06:52:41 72° 258° (WSW) 06:57:51 437.568
AIST 1 07 Mar 06:50:03 06:54:24 84° 96° (E) 06:58:50
